Regional Weather Roundup
Issued by NWS

Home | Current Version | Previous Version | Graphics & Text | Print | Product List | Glossary On
Versions: 1 2 3 4 5 6 7 8 9 10 11 12 13 14 15 16 17 18 19 20 21 22 23 24 25 26 27 28 29 30 31 32 33 34 35 36 37 38 39 40 41 42 43 44 45 46 47 48 49 50
000
ASUS43 KLOT 272313
RWRIL

ILLINOIS REGIONAL WEATHER ROUNDUP
NATIONAL WEATHER SERVICE CHICAGO/ROMEOVILLE IL
600 PM CDT THU AUG 27 2015

NOTE: "FAIR" INDICATES FEW OR NO CLOUDS BELOW 12,000 FEET WITH NO
SIGNIFICANT WEATHER AND/OR OBSTRUCTIONS TO VISIBILITY.

* THESE STATIONS ARE NOT UNDER NWS QUALITY CONTROL. THEY ALSO MAY NOT
  REPORT WEATHER SUCH AS PRECIPITATION OR FOG.

ILZ001-002-007-009-015-016-024-280000-
NORTHWEST ILLINOIS

CITY           SKY/WX    TMP DP  RH WIND       PRES   REMARKS
MOLINE         SUNNY     73  58  59 S6        30.09R
STERLING*      PTSUNNY  N/A N/A N/A S3        30.09S
SAVANNA*       MOSUNNY   74  56  55 SE6       30.11R
$$

ILZ003-004-008-010-011-017-018-280000-
NORTH CENTRAL ILLINOIS

CITY           SKY/WX    TMP DP  RH WIND       PRES   REMARKS
ROCKFORD       CLOUDY    71  56  58 SE8       30.14R
FREEPORT*      PTSUNNY   69  58  67 S3        30.14R
ROCHELLE*      CLOUDY    70  58  65 SE6       30.13S
DE KALB*       CLOUDY    69  57  66 S5        30.15S
PERU*          MOSUNNY   73  54  51 SE6       30.12F
$$

ILZ005-006-012>014-019>023-280000-
NORTHEAST ILLINOIS

CITY           SKY/WX    TMP DP  RH WIND       PRES   REMARKS
CHICAGO-OHARE  PTSUNNY   70  52  52 E10       30.13S
CHICAGO-MIDWAY PTSUNNY   71  55  56 E9        30.13S
AURORA         CLOUDY    71  58  63 SW7       30.14S
LANSING*       MOSUNNY   69  55  60 SE5       30.14S
JOLIET*        PTSUNNY   71  59  64 CALM      30.14S
WAUKEGAN       MOSUNNY   66  57  72 SE10      30.13S
DUPAGE AIRPORT MOSUNNY   73  55  53 S5        30.12S
KANKAKEE*      PTSUNNY   71  62  72 CALM      30.14S
WHEELING       SUNNY     69  51  52 E8        30.14F
MORRIS*        CLOUDY    70  60  70 E3        30.13R
ROMEOVILLE*    PTSUNNY   70  55  59 S6        30.13F
NORTHERLY ISL    N/A     67  55  65 E6          N/A
$$

LMZ740>746-280000-
SOUTHERN LAKE MICHIGAN

STATION/POSITION SKY/WX   TEMP    WIND        PRES    VSBY  WAVE
                          AIR SEA DIR/SP/G                  HT/PER
                          (F)     (DEG/KT/KT) (MB)    (MI)  (FT/S)
SOUTHERN BUOY              65 69  200/  6/  6 1020.9F         1
WILMETTE HARBOR            66 56  280/  8/ 10   N/A           1/ 2
HARRISON CRIB              67     100/  8/  9   N/A
BURNHAM HARBOR             66      90/  6/  7   N/A
CALUMET HARBOR             67      50/  6/  9   N/A
BURNS HARBOR               69      50/  7/  8 1021.0F
MICHIGAN CITY              69     320/  4/  5   N/A
MICHIGAN CITY 6N           68 72   CALM  /  2   N/A           0
ST. JOSEPH                 67 72   10/  4/  6   N/A           1
$$

ILZ025>027-034>036-040-047-049-050-058-095>099-280000-
WEST-CENTRAL ILLINOIS

CITY           SKY/WX    TMP DP  RH WIND       PRES   REMARKS
QUINCY         PTSUNNY   73  57  57 SE10      30.07S
GALESBURG*     MOSUNNY   71  59  65 E3        30.10R
MACOMB*        PTSUNNY   73  58  61 SE7       30.10S
JACKSONVILLE*  MOSUNNY   77  60  54 E5        30.09S
PITTSFIELD*    MOSUNNY   74  59  58 SE3       30.10S
$$

ILZ028>032-037-038-041>044-048-051>054-059>061-280000-
CENTRAL ILLINOIS

CITY           SKY/WX    TMP DP  RH WIND       PRES   REMARKS
PONTIAC        PTSUNNY   74  62  65 SE5       30.13F
BLOOMINGTON    MOSUNNY   75  57  53 SE5       30.13F
DECATUR        PTSUNNY   77  60  55 CALM      30.11F
PEORIA         MOSUNNY   76  57  51 SE3       30.11F
LACON*         SUNNY     73  57  57 SE5       30.11S
LINCOLN*       PTSUNNY   76  55  47 CALM      30.10F
SPRINGFIELD    PTSUNNY   77  58  51 E3        30.10F
TAYLORVILLE    PTSUNNY   73  59  60 CALM      30.10S
$$

ILZ033-039-045-046-055>057-062-063-280000-
EAST-CENTRAL ILLINOIS

CITY           SKY/WX    TMP DP  RH WIND       PRES   REMARKS
CHAMPAIGN      PTSUNNY   77  61  57 N3        30.12F
RANTOUL*       PTSUNNY   76  59  54 CALM      30.12F
MATTOON        PTSUNNY   76  57  51 S6        30.11F
PARIS*         MOSUNNY   76  63  62 CALM      30.13R
$$

ILZ079-100>102-280000-
SOUTHWEST ILLINOIS

CITY           SKY/WX    TMP DP  RH WIND       PRES   REMARKS
BELLEVILLE     MOSUNNY   75  60  58 N1        30.09F
CAHOKIA*       PTSUNNY   78  56  46 E6        30.09F
SPARTA*        MOSUNNY   73  61  67 CALM      30.11F
$$

ILZ064>066-069>071-074>076-080>082-084>086-088>090-092>094-280000-
SOUTH-CENTRAL ILLINOIS

CITY           SKY/WX    TMP DP  RH WIND       PRES   REMARKS
CARBONDALE     SUNNY     77  57  50 NW3       30.10F
CAIRO*         MOSUNNY   78  64  61 N3        30.09S
EFFINGHAM*     PTSUNNY   75  57  53 CALM      30.12F
MARION         PTSUNNY   77  61  57 N6        30.11F
MT. VERNON     MOSUNNY   79  57  47 CALM      30.12F HX  80
CENTRALIA*     SUNNY     76  58  53 CALM      30.10
SALEM*           N/A     77  58  50 CALM      30.11F
METROPOLIS*    MOSUNNY   79  62  55 CALM      30.10S HX  80
$$

ILZ067-068-072-073-078-083-087-091-280000-
SOUTHEAST ILLINOIS

CITY           SKY/WX    TMP DP  RH WIND       PRES   REMARKS
LAWRENCEVILLE  MOSUNNY   79  56  45 CALM      30.11R HX  80
FLORA*         MOSUNNY   77  58  51 NW5       30.11F
FAIRFIELD*     MOSUNNY   77  63  61 CALM      30.09F
HARRISBURG*    MOSUNNY   80  59  48 CALM      30.10F HX  80
ROBINSON*      MOSUNNY   76  60  59 CALM      30.12S
CARMI*         MOSUNNY   77  58  52 CALM      30.10S
$$

ABBREVIATIONS USED IN REMARKS
   TC - TEMPERATURE IN CELSIUS
  WCI - WIND CHILL INDEX
   HX - HEAT INDEX
  VSB - VISIBILITY
$$



USA.gov is the U.S. government's official web portal to all federal, state and local government web resources and services.